Volver al catálogo

SL-6 R/B(2)

ActivoHEO
NORAD 7629·ROCKET BODY·🇷🇺 Russia

Lanzado Jan 30, 1975 desde Plesetsk Cosmodrome

Loading…

Próximos Pases (próximas 24 horas)

TLE

ActualizadoSource: Space-Track

Época: Sep 14, 2026, 03:33 UTC

1 07629U 75007D   26257.14854374 -.00000110  00000-0  00000-0 0  9994
2 07629  68.9430 227.7384 5181807 299.3455 298.4242  2.00856556239783

Sigue SL-6 R/B(2) en tiempo real con AllMySat

Download on the App Store